Showing default

JILIN-01 KUANFU 01, 45016

Orbit data source: Space-Track

JILIN-01 KUANFU 01, 45016 is a payload satellite owned by Changguang WJ (CN) in SSO that was launched on Wed, 15 Jan 2020 UTC via a CHANG ZHENG 2D launch vehicle from the Taiyaun Space Center, China (TSC). Payloads include a variety of satellites, spacecraft, and rockets equipped with specific instruments for various scientific and technological missions. These include communications satellites like Starlink; space stations such as the ISS; scientific satellites like the Hubble; Earth observation satellites from companies like Planet Labs, Umbra, and HawkEye 360; GPS; miniature CubeSats for education and research; and military/defense satellites.

Loading next visibility...
JILIN-01 KUANFU 01 details
Identifier
45016, 2020-003A
Orbit
SSO
Last TLE update5 hours ago
Origin
Flag of CNChangguang WJ (CN / PRC)
ManufacturerHARB/CIOMP
MissionOperational Commercial Imaging
Bus & MotorJL-1, Unknown motor
Mass1,250 kg wet, 1,250 kg dry
Launch date (UTC)
2020-01-15 (5 years ago)
Launch vehicle
CHANG ZHENG 2D
Launch site
Taiyaun Space Center, China (TSC)
Object type
Payload
Rocket body
Debris
Shape & HBRBox + 2 Pan, 1.5 m
Radar Cross Section2.000 m², Large (>1 m²)

Expand to show TLE details & history

TLE from 5 hours ago
0 JILIN-01 KUANFU 01
1 45016U 20003A   24361.48899190  .00011882  00000-0  62350-3 0  9994
2 45016  97.5620  73.1128 0011890 171.8570 188.2857 15.15832908274157
Epoch: 2024-12-26T11:44Z
Definitive object data (Epoch: 2024-12-26T11:44:08.9Z)
Latitude-0.00007°
Longitude161.60807°
Altitude529.648 km
Speed7.594 km/s
True Right ascension04h 52m 27s
True Declination0° 00' 00"
Sunlit
Object was in full shadow at TLE epoch
Visualization TLE readout
Latitude56.00278°
Longitude-6.88348°
Altitude522.285 km
Speed7.611 km/s
Apparent Right ascension01h 24m 16s
Apparent Declination43° 00' 47"
Sunlit
Object is in daylight
Visualization observer readout
Local Sidereal Time16:24:08
Azimuth31.143° NE
Elevation2.346°
Doppler factor1
Orbital elements
Apogee altitude523.626 km
Perigee altitude507.233 km
Semi-major axis6,893.566 km
Eccentricity0.001189
Inclination97.562°
RAAN73.1128°
Arg. of periapsis171.857°
True anomaly188.26609°
Mean anomaly188.2857°
Eccentric anomaly188.27589°
Mean motion3.79208 °/min
BSTAR0.0006235
Orbital period94.93 mins
Loading maneuver chart data...
Loading historical data...
Loading historical data...
Loading historical data...
Loading historical data...
Loading historical data...
Loading historical data...
Loading historical data...

JILIN-01 KUANFU 01 Visibility forecast

Observer location: undefined°, undefined

Span
Click to sort rows by Start time (UTC) header in descending order
Start Az.
Max El. time (UTC)
Max El. Az.
Max El.
End time (UTC)
End Az.
5 mins2024-12-26 17:03:52.812Z46.961° ENE2024-12-26 17:06:52.812Z102.077° ESE18.779°2024-12-26 17:08:52.812Z138.319° SSE
4 mins2024-12-26 18:38:52.812Z328.847° NNW2024-12-26 18:40:52.812Z282.719° WNW22.06°2024-12-26 18:42:52.812Z243.15° WSW
6 mins2024-12-27 05:17:52.812Z186.066° SSW2024-12-27 05:19:52.812Z231.503° WSW38.845°2024-12-27 05:23:52.812Z339.048° N
|